Regional Weather Roundup
Issued by NWS

Home | Current Version | Previous Version | Text Only | Print | Product List | Glossary On
Versions: 1 2 3 4 5 6 7 8 9 10 11 12 13 14 15 16 17 18 19 20 21 22 23 24 25 26 27 28 29 30 31 32 33 34 35 36 37 38 39 40 41 42 43 44 45 46 47 48 49 50
000
ASUS43 KDTX 241810
RWRMI
MICHIGAN HOURLY REGIONAL WEATHER ROUNDUP
NATIONAL WEATHER SERVICE DETROIT/PONTIAC MI
200 PM EDT FRI MAR 24 2017

NOTE: "FAIR" INDICATES FEW OR NO CLOUDS BELOW 12,000 FEET WITH NO
SIGNIFICANT WEATHER AND/OR OBSTRUCTION TO VISIBILITY.

MIZ047>049-052>055-059>063-066>070-074>076-081>083-241900-
SOUTHEAST LOWER MICHIGAN

CITY           SKY/WX    TMP DP  RH WIND       PRES   REMARKS
ADRIAN         CLOUDY    69  54  58 SW17G23   29.99F
6HR MIN TEMP:  44; 6HR MAX TEMP:  69;

ALMA           PTSUNNY   62  49  63 SW22G31   29.93S
ANN ARBOR      CLOUDY    69  54  58 SW14G23   29.97F
BAD AXE        CLOUDY    61  46  57 W21G26    29.92R
6HR MIN TEMP:  35; 6HR MAX TEMP:  61;

CARO           MOSUNNY   65  48  55 SW21G29   29.91F
DETROIT CITY   CLOUDY    67  51  56 SW16G30   29.97F
6HR MIN TEMP:  46; 6HR MAX TEMP:  67;

DETROIT        CLOUDY    69  53  56 SW20      29.99F
6HR MIN TEMP:  44; 6HR MAX TEMP:  69;

FLINT          PTSUNNY   66  49  54 W16G22    29.94F
6HR MIN TEMP:  47; 6HR MAX TEMP:  66;

GROSSE ILE     CLOUDY    66  52  60 SW14G25   29.98F
6HR MIN TEMP:  47; 6HR MAX TEMP:  66;

HILLSDALE      CLOUDY    70  50  49 SW21G26   29.98S
HOWELL         PTSUNNY   69  49  49 SW14G20   29.94F
6HR MIN TEMP:  46; 6HR MAX TEMP:  69;


CITY           SKY/WX    TMP DP  RH WIND       PRES   REMARKS
JACKSON        CLOUDY    70  51  51 SW24G30   29.95F
6HR MIN TEMP:  50; 6HR MAX TEMP:  70;

LAMBERTVILLE   CLOUDY    71  52  51 W20G30    29.99F
6HR MIN TEMP:  52; 6HR MAX TEMP:  71;

LANSING        MOSUNNY   71  49  45 SW14      29.94F
6HR MIN TEMP:  50; 6HR MAX TEMP:  71;

LAPEER         FAIR      67  48  50 W15G23    29.94S
6HR MIN TEMP:  48; 6HR MAX TEMP:  67;

MASON          MOSUNNY   69  52  56 SW9G21    29.94F
MONROE         MOSUNNY   68  56  66 MISG      29.99S
MT. CLEMENS    PTSUNNY   66  51  57 SW18      29.95F
6HR MIN TEMP:  42; 6HR MAX TEMP:  66;

PONTIAC        CLOUDY    68  49  50 SW14      29.94F
6HR MIN TEMP:  45; 6HR MAX TEMP:  68;

PORT HOPE        N/A     40  35  83 CALM      29.92S
6HR MIN TEMP:  35; 6HR MAX TEMP:  41;

PORT HURON     CLOUDY    63  45  51 S15       29.95F
TRI CITIES     MOSUNNY   62  49  62 W21G29    29.92S
6HR MIN TEMP:  38; 6HR MAX TEMP:  62;

MIDLAND        PTSUNNY   63  46  52 SW10      29.90S
6HR MIN TEMP:  38; 6HR MAX TEMP:  63;

TROY           MOSUNNY   67  49  52 S12G22    29.97F
SAGINAW HB     CLOUDY    64  45  48 SW18G29   29.90F
$$
MIZ043>046-050>051-056>058-064>065-071>073-077>080-241900-
SOUTHWEST LOWER MICHIGAN

CITY           SKY/WX    TMP DP  RH WIND       PRES   REMARKS
BATTLE CREEK   CLOUDY    73  52  47 SW21      29.94F
6HR MIN TEMP:  49; 6HR MAX TEMP:  73;

BENTON HARBOR  SUNNY     76  47  35 SW24G36   29.93S
6HR MIN TEMP:  53; 6HR MAX TEMP:  76;

BIG RAPIDS     PTSUNNY   60  45  57 W8        29.90F
6HR MIN TEMP:  38; 6HR MAX TEMP:  60;

COLDWATER      CLOUDY    72  50  45 SW20G29   29.97S
6HR MIN TEMP:  51; 6HR MAX TEMP:  72;

FREMONT        PTSUNNY   60  44  56 SW8       29.92S
HOLLAND        PTSUNNY   61  48  62 SW17      29.94R
6HR MIN TEMP:  54; 6HR MAX TEMP:  63;

GRAND RAPIDS   CLOUDY    63  49  60 W17G24    29.93F
6HR MIN TEMP:  47; 6HR MAX TEMP:  64;

IONIA          CLOUDY    61  47  60 W3        29.93F
6HR MIN TEMP:  43; 6HR MAX TEMP:  61;

KALAMAZOO      SUNNY     74  48  39 SW21G30   29.94F
6HR MIN TEMP:  50; 6HR MAX TEMP:  74;

LUDINGTON      CLOUDY    47  40  74 N8        29.95R
6HR MIN TEMP:  44; 6HR MAX TEMP:  52;

MARSHALL       SUNNY     72  52  49 SW16G26   29.94F
6HR MIN TEMP:  50; 6HR MAX TEMP:  72;

MOUNT PLEASANT CLOUDY    64  47  55 SW13G20   29.90S
6HR MIN TEMP:  37; 6HR MAX TEMP:  64;

MUSKEGON       CLOUDY    56  44  64 SW6       29.94S
6HR MIN TEMP:  45; 6HR MAX TEMP:  56;

SOUTH HAVEN    SUNNY     72  48  42 SW23G32   29.92R
$$
MIZ016>042-241900-
NORTHERN LOWER MICHIGAN

CITY           SKY/WX    TMP DP  RH WIND       PRES   REMARKS
ALPENA         CLOUDY    40  37  89 NW5       29.96R
6HR MIN TEMP:  33; 6HR MAX TEMP:  40; 6HR PCP:  0.01;

BEAVER ISLAND  LGT RAIN  34  34  99 N6        30.01R WCI  29
6HR MIN TEMP:  32; 6HR MAX TEMP:  37;

BELLAIRE       CLOUDY    39  37  90 CALM      29.99R FOG
6HR MIN TEMP:  35; 6HR MAX TEMP:  40;

CADILLAC       CLOUDY    55  39  56 W9        29.92R
CHARLEVOIX     RAIN      35  35 100 N5        30.02R WCI  31
6HR MIN TEMP:  34; 6HR MAX TEMP:  38;

FRANKFORT      CLOUDY    38  34  86 N5        29.98R FOG     WCI  34
GAYLORD        CLOUDY    39  35  86 W3        29.95R FOG
6HR MIN TEMP:  35; 6HR MAX TEMP:  41;

GRAYLING       CLOUDY    45  37  76 NW8       29.95R
HARBOR SPRINGS LGT RAIN  37  37  99 NE6       29.98R WCI  32
HOUGHTON LAKE  CLOUDY    56  40  55 W9        29.91S
6HR MIN TEMP:  37; 6HR MAX TEMP:  56;

MANISTEE       CLOUDY    44  37  76 NW8       29.96R
OSCODA         CLOUDY    51  38  62 SE5       29.92F
6HR MIN TEMP:  35; 6HR MAX TEMP:  53;

PELLSTON       RAIN      37  34  89 N8        29.99R FOG     WCI  31
6HR MIN TEMP:  33; 6HR MAX TEMP:  38; 6HR PCP:  0.08;

ROGERS CITY    CLOUDY    36  33  92 N5        29.97  FOG     WCI  32
TRAVERSE CITY  CLOUDY    40  36  86 N6        29.98R FOG
6HR MIN TEMP:  37; 6HR MAX TEMP:  43;

$$
MIZ007>008-015-241900-
EASTERN UPPER MICHIGAN

CITY           SKY/WX    TMP DP  RH WIND       PRES   REMARKS
KINROSS        LGT SNOW  34  32  93 N5        29.99R FOG     WCI  30
6HR MIN TEMP:  32; 6HR MAX TEMP:  33; 6HR PCP:  0.46;

MACKINAC ISLAN LGT SNOW  32  32 100 N5        30.00R VSB 3/4 WCI  28
6HR MIN TEMP:  32; 6HR MAX TEMP:  32; 6HR PCP:  0.35;

NEWBERRY       CLOUDY    33  32  96 N7        29.99R FOG     WCI  27
6HR MIN TEMP:  31; 6HR MAX TEMP:  33; 6HR PCP:  0.22;

S. S. MARIE    LGT SNOW  35  32  88 CALM      29.99R FOG
6HR MIN TEMP:  33; 6HR MAX TEMP:  35;

MUNISING         N/A     35  33  92 NW9       30.03R WCI  28
6HR MIN TEMP:  33; 6HR MAX TEMP:  35; 6HR PCP:  0.02;

$$
MIZ004>006-011>014-085-241900-
CENTRAL UPPER MICHIGAN

CITY           SKY/WX    TMP DP  RH WIND       PRES   REMARKS
MANISTIQUE     MIX PCPN  34  32  93 N7        30.00R WCI  28
ESCANABA       LGT RAIN  36  35  96 N7        30.03R WCI  30
6HR MIN TEMP:  34; 6HR MAX TEMP:  37; 6HR PCP:  0.22;

MENOMINEE        N/A    N/A N/A N/A MISG        N/A
SAWYER-GWINN   CLOUDY    32  32 100 N3        30.02R FOG
$$
MIZ001>003-009>011-084-241900-
WESTERN UPPER MICHIGAN

CITY           SKY/WX    TMP DP  RH WIND       PRES   REMARKS
IRON MOUNTAIN  LGT RAIN  36  32  85 N7        30.00S FOG     WCI  30
6HR MIN TEMP:  32; 6HR MAX TEMP:  36; 6HR PCP:  0.16;

HOUGHTON       CLOUDY    37  31  78 N7        30.04R WCI  32
6HR MIN TEMP:  33; 6HR MAX TEMP:  38;

COPPER HARBOR    N/A     36  33  89 NE8       30.06R WCI  30
6HR MIN TEMP:  33; 6HR MAX TEMP:  37;

IRONWOOD       CLOUDY    34  33  96 N5        30.06R FOG     WCI  30
6HR MIN TEMP:  33; 6HR MAX TEMP:  35;

$$

ABBREVIATIONS USED IN REMARKS
   TC - TEMPERATURE IN CELSIUS
  WCI - WIND CHILL INDEX
   HX - HEAT INDEX
  VSB - VISIBILITY




USA.gov is the U.S. government's official web portal to all federal, state and local government web resources and services.